This is the latest recevied weather packets stored in our database for station/object N3FAA. If no packets are shown the sender has not sent any weather packets the latest 10 day(s).
| Time | Temp. | Humidity | Pressure | Rain* | Wind** | Luminosity | Snow |
|---|---|---|---|---|---|---|---|
| 1777688659 | 23.89° C | 30% | 1009.2 hPa | 0 mm | - | 12 W/m² | - |
| 1777688356 | 23.89° C | 30% | 1009.4 hPa | 0 mm | - | 15 W/m² | - |
| 1777688053 | 24.44° C | 29% | 1009.1 hPa | 0 mm | - | 20 W/m² | - |
| 1777687750 | 24.44° C | 28% | 1009.1 hPa | 0 mm | - | 27 W/m² | - |
| 1777687448 | 25° C | 27% | 1009 hPa | 0 mm | - | 34 W/m² | - |
| 1777687144 | 25° C | 27% | 1009.1 hPa | 0 mm | - | 43 W/m² | - |
| 1777686842 | 25° C | 26% | 1009 hPa | 0 mm | - | 47 W/m² | - |
| 1777686539 | 25.56° C | 26% | 1008.9 hPa | 0 mm | - | 55 W/m² | - |
| 1777686236 | 25.56° C | 25% | 1008.9 hPa | 0 mm | - | 69 W/m² | - |
| 1777685932 | 26.11° C | 25% | 1008.7 hPa | 0 mm | - | 86 W/m² | - |
| 1777685627 | 26.11° C | 26% | 1008.9 hPa | 0 mm | - | 98 W/m² | - |
| 1777685324 | 26.11° C | 26% | 1008.8 hPa | 0 mm | - | 100 W/m² | - |
| 1777685023 | 26.11° C | 26% | 1008.7 hPa | 0 mm | - | 135 W/m² | - |
| 1777684719 | 26.67° C | 26% | 1008.9 hPa | 0 mm | - | 133 W/m² | - |
| 1777684415 | 26.67° C | 26% | 1009 hPa | 0 mm | - | 152 W/m² | - |
| 1777684113 | 26.67° C | 24% | 1008.8 hPa | 0 mm | - | 134 W/m² | - |
| 1777683809 | 27.22° C | 24% | 1008.9 hPa | 0 mm | - | 182 W/m² | - |
| 1777683506 | 27.22° C | 23% | 1008.7 hPa | 0 mm | - | 198 W/m² | - |
| 1777683204 | 27.22° C | 23% | 1008.7 hPa | 0 mm | - | 212 W/m² | - |
| 1777682901 | 27.78° C | 22% | 1008.8 hPa | 0 mm | - | 259 W/m² | - |
| 1777682597 | 27.78° C | 21% | 1008.8 hPa | 0 mm | - | 281 W/m² | - |
| 1777682295 | 27.78° C | 23% | 1008.6 hPa | 0 mm | - | 303 W/m² | - |
| 1777681992 | 27.78° C | 23% | 1008.7 hPa | 0 mm | - | 284 W/m² | - |
| 1777681688 | 28.33° C | 23% | 1008.8 hPa | 0 mm | - | 337 W/m² | - |
| 1777681385 | 28.89° C | 23% | 1008.5 hPa | 0 mm | - | 355 W/m² | - |
* Rain latest hour (hover to see other rain measurements)
** Current wind speed in m/s (hover to see current wind gust speed)